FW8658 Weather Reports


time (UTC)temp
F
wind
direction
speed
knots
gust
knots
rain 1hr
in
rain 24hr
in
rain mn
in
humidity
%
barometer
mb
20260503223930 87 330 4.3 9.6 0.00 0.00 0.00 35 1007.9
20260503223427 87 10 4.3 5.2 0.00 0.00 0.00 33 1007.8
20260503222922 87 326 7.0 9.6 0.00 0.00 0.00 35 1007.9
20260503222421 87 28 2.6 7.0 0.00 0.00 0.00 35 1008.0
20260503221919 87 66 2.6 9.6 0.00 0.00 0.00 34 1008.2
20260503221417 87 325 9.6 12.2 0.00 0.00 0.00 34 1008.4
20260503220913 87 7 2.6 4.3 0.00 0.00 0.00 38 1008.3
20260503220410 87 2 6.1 7.8 0.00 0.00 0.00 37 1008.5
20260503215907 86 15 1.7 2.6 0.00 0.00 0.00 39 1008.4
20260503215404 87 353 6.1 7.8 0.00 0.00 0.00 37 1008.4
20260503214902 86 7 2.6 2.6 0.00 0.00 0.00 38 1008.6
20260503214359 87 310 4.3 12.2 0.00 0.00 0.00 41 1008.9
20260503213856 86 349 5.2 7.0 0.00 0.00 0.00 39 1008.6
20260503213354 86 17 4.3 7.8 0.00 0.00 0.00 39 1009.0
20260503212850 86 2 0.0 7.8 0.00 0.00 0.00 41 1008.7
20260503212348 86 18 5.2 7.0 0.00 0.00 0.00 40 1009.0
20260503211845 85 16 1.7 9.6 0.00 0.00 0.00 40 1009.1
20260503211342 86 51 2.6 4.3 0.00 0.00 0.00 43 1009.0
20260503210837 85 14 2.6 10.4 0.00 0.00 0.00 44 1009.0
20260503210335 85 336 4.3 7.8 0.00 0.00 0.00 41 1009.0
20260503205829 85 18 3.5 12.2 0.00 0.00 0.00 43 1009.0
20260503205326 84 335 4.3 9.6 0.00 0.00 0.00 45 1009.1
20260503204823 84 349 4.3 10.4 0.00 0.00 0.00 46 1009.3
20260503204320 84 5 6.1 9.6 0.00 0.00 0.00 45 1009.3
20260503203817 83 287 5.2 7.0 0.00 0.00 0.00 47 1009.3
20260503203315 84 351 6.1 12.2 0.00 0.00 0.00 45 1009.2
20260503202812 84 10 7.8 10.4 0.00 0.00 0.00 47 1009.5
20260503202310 84 343 3.5 7.0 0.00 0.00 0.00 47 1009.6
20260503201808 84 80 0.0 9.6 0.00 0.00 0.00 54 1009.5
20260503201304 83 30 1.7 5.2 0.00 0.00 0.00 50 1009.5
20260503200802 82 335 2.6 7.0 0.00 0.00 0.00 50 1009.6
20260503200257 82 9 7.8 9.6 0.00 0.00 0.00 50 1009.7
20260503195755 83 345 6.1 7.8 0.00 0.00 0.00 50 1009.8
20260503195251 83 19 7.8 12.2 0.00 0.00 0.00 49 1009.9
20260503194749 81 36 2.6 9.6 0.00 0.00 0.00 51 1009.9
20260503194245 81 348 7.0 10.4 0.00 0.00 0.00 50 1010.0
20260503193741 81 359 1.7 5.2 0.00 0.00 0.00 50 1010.1
20260503193237 81 42 4.3 7.8 0.00 0.00 0.00 51 1010.1
20260503192733 80 31 5.2 7.0 0.00 0.00 0.00 53 1010.0
20260503192228 80 16 7.8 10.4 0.00 0.00 0.00 52 1010.3
20260503191725 80 356 4.3 9.6 0.00 0.00 0.00 54 1010.1
20260503191222 80 13 5.2 7.0 0.00 0.00 0.00 53 1010.2
20260503190719 81 348 6.1 7.8 0.00 0.00 0.00 54 1010.4
20260503190216 79 39 3.5 7.8 0.00 0.00 0.00 54 1010.3
20260503185713 78 343 6.1 7.8 0.00 0.00 0.00 53 1010.7
20260503185208 78 14 5.2 7.8 0.00 0.00 0.00 53 1010.6
20260503184703 78 4 5.2 9.6 0.00 0.00 0.00 55 1010.5
20260503184200 78 16 4.3 12.2 0.00 0.00 0.00 54 1010.4
20260503183656 78 328 4.3 10.4 0.00 0.00 0.00 54 1010.6
20260503183154 77 11 7.0 10.4 0.00 0.00 0.00 55 1010.6
20260503182652 77 349 9.6 13.0 0.00 0.00 0.00 55 1010.6
20260503182150 78 25 7.8 9.6 0.00 0.00 0.00 56 1010.7
20260503181646 78 345 3.5 10.4 0.00 0.00 0.00 57 1010.9
20260503181143 77 1 3.5 5.2 0.00 0.00 0.00 57 1011.0
20260503180640 76 35 1.7 7.8 0.00 0.00 0.00 56 1010.9
20260503180138 76 336 3.5 7.0 0.00 0.00 0.00 57 1010.9
20260503175635 76 358 7.0 9.6 0.00 0.00 0.00 57 1010.8
20260503175132 75 12 6.1 7.8 0.00 0.00 0.00 59 1010.9
20260503174628 75 352 5.2 7.0 0.00 0.00 0.00 58 1011.0
20260503174126 74 315 8.7 10.4 0.00 0.00 0.00 58 1011.1
20260503173620 74 332 9.6 12.2 0.00 0.00 0.00 57 1011.1
20260503173117 74 9 7.8 9.6 0.00 0.00 0.00 58 1011.1
20260503172614 74 319 6.1 7.8 0.00 0.00 0.00 58 1011.0
20260503172112 73 20 2.6 9.6 0.00 0.00 0.00 60 1011.3
20260503171608 73 3 7.0 9.6 0.00 0.00 0.00 60 1011.3
20260503171106 72 322 7.8 9.6 0.00 0.00 0.00 61 1011.4
20260503170602 72 349 6.1 7.8 0.00 0.00 0.00 62 1011.1
20260503150954 62 328 2.6 5.2 0.00 0.00 0.00 79 1011.9
20260503150451 62 325 1.7 5.2 0.00 0.00 0.00 79 1011.9
20260503131344 56 57 0.0 0.0 0.00 0.00 0.00 88 1011.3
20260503130841 56 81 0.0 1.7 0.00 0.00 0.00 88 1011.5
20260503130338 56 49 0.0 0.0 0.00 0.00 0.00 88 1011.3
20260503110732 58 71 0.0 1.7 0.00 0.00 0.00 86 1011.9
20260503110229 57 346 0.0 1.7 0.00 0.00 0.00 86 1011.7
20260503100155 59 25 0.9 1.7 0.00 0.00 0.00 85 1011.7
20260503090115 60 283 1.7 2.6 0.00 0.00 0.00 83 1011.7
20260503081550 60 97 0.9 2.6 0.00 0.00 0.00 84 1011.8
20260503081048 60 351 2.6 2.6 0.00 0.00 0.00 85 1011.8
20260503080544 60 98 0.0 1.7 0.00 0.00 0.00 85 1012.0
20260503072518 64 84 0.0 1.7 0.00 0.00 0.00 76 1012.0
20260503072015 63 124 1.7 5.2 0.00 0.00 0.00 77 1011.9
20260503071512 61 77 0.0 4.3 0.00 0.00 0.00 82 1011.8
20260503071008 62 47 0.0 1.7 0.00 0.00 0.00 85 1011.6
20260503070505 62 47 0.9 2.6 0.00 0.00 0.00 85 1012.0
20260503054929 61 218 1.7 2.6 0.00 0.00 0.00 88 1012.6
20260503054425 61 270 2.6 2.6 0.00 0.00 0.00 88 1012.5
20260503053923 61 246 2.6 4.3 0.00 0.00 0.00 87 1012.7
20260503053420 61 251 2.6 2.6 0.00 0.00 0.00 87 1012.6
20260503052916 61 219 1.7 2.6 0.00 0.00 0.00 87 1012.5
20260503052414 62 232 1.7 2.6 0.00 0.00 0.00 86 1012.7
20260503051910 62 246 2.6 4.3 0.00 0.00 0.00 86 1012.4
20260503051406 62 358 0.9 1.7 0.00 0.00 0.00 85 1012.3
20260503050904 63 235 1.7 2.6 0.00 0.00 0.00 84 1012.3
20260503050359 63 264 2.6 2.6 0.00 0.00 0.00 84 1012.7
20260503045857 63 278 1.7 2.6 0.00 0.00 0.00 83 1012.4
20260503045354 64 214 0.9 2.6 0.00 0.00 0.00 83 1012.5
20260503044851 64 237 1.7 2.6 0.00 0.00 0.00 82 1012.2
20260503044348 64 253 0.9 2.6 0.00 0.00 0.00 83 1012.3
20260503043845 64 293 0.9 1.7 0.00 0.00 0.00 82 1012.1
20260503043342 65 236 0.9 1.7 0.00 0.00 0.00 81 1012.3
20260503042838 65 242 1.7 2.6 0.00 0.00 0.00 79 1012.2
20260503042335 65 240 1.7 1.7 0.00 0.00 0.00 79 1012.2
20260503041831 65 109 0.9 1.7 0.00 0.00 0.00 79 1012.1
20260503041328 66 243 1.7 2.6 0.00 0.00 0.00 77 1012.0
20260503040826 66 240 1.7 2.6 0.00 0.00 0.00 76 1012.0
20260503040324 67 260 1.7 2.6 0.00 0.00 0.00 76 1012.1
20260503035820 67 286 0.9 1.7 0.00 0.00 0.00 75 1011.7
20260503035317 67 46 0.0 1.7 0.00 0.00 0.00 74 1011.6
20260503034815 68 233 0.9 1.7 0.00 0.00 0.00 73 1011.5
20260503034312 68 72 0.9 1.7 0.00 0.00 0.00 73 1011.2
20260503033809 69 37 0.0 1.7 0.00 0.00 0.00 71 1011.5
20260503033306 70 61 0.9 1.7 0.00 0.00 0.00 69 1011.3
20260503032804 71 206 0.0 1.7 0.00 0.00 0.00 67 1011.2
20260503032304 72 92 0.0 0.0 0.00 0.00 0.00 63 1011.3
20260503031759 72 169 0.9 2.6 0.00 0.00 0.00 62 1011.1
20260503031258 73 146 0.0 1.7 0.00 0.00 0.00 61 1011.1
20260503030754 73 39 0.0 1.7 0.00 0.00 0.00 59 1011.0
20260503030250 74 98 0.0 2.6 0.00 0.00 0.00 58 1010.8
20260503025747 74 52 0.0 4.3 0.00 0.00 0.00 58 1010.5
20260503025245 74 51 0.9 5.2 0.00 0.00 0.00 58 1010.2
20260503024741 74 32 1.7 5.2 0.00 0.00 0.00 58 1010.3
20260503024238 74 59 0.0 2.6 0.00 0.00 0.00 58 1010.2
20260503023735 74 23 1.7 5.2 0.00 0.00 0.00 58 1010.2
20260503023232 74 47 4.3 9.6 0.00 0.00 0.00 58 1010.0
20260503022728 74 9 2.6 4.3 0.00 0.00 0.00 58 1010.1
20260503022228 75 38 0.9 5.2 0.00 0.00 0.00 58 1009.8
20260503021725 75 36 3.5 7.8 0.00 0.00 0.00 57 1009.9
20260503021221 75 22 4.3 10.4 0.00 0.00 0.00 57 1010.3
20260503020719 75 14 6.1 12.2 0.00 0.00 0.00 57 1009.8
20260503020216 75 328 0.9 5.2 0.00 0.00 0.00 58 1010.0
20260503015713 75 352 4.3 7.8 0.00 0.00 0.00 57 1010.1
20260503015210 75 49 2.6 4.3 0.00 0.00 0.00 58 1010.0
20260503014705 75 27 2.6 4.3 0.00 0.00 0.00 56 1010.0
20260503014204 75 340 2.6 5.2 0.00 0.00 0.00 58 1010.0
20260503013701 75 34 0.9 4.3 0.00 0.00 0.00 58 1010.0
20260503013158 75 43 1.7 9.6 0.00 0.00 0.00 57 1010.0
20260503012655 75 42 1.7 5.2 0.00 0.00 0.00 57 1010.0
20260503012152 76 63 0.0 2.6 0.00 0.00 0.00 58 1010.3
20260503011648 75 330 2.6 5.2 0.00 0.00 0.00 58 1009.9
20260503011146 75 304 6.1 7.8 0.00 0.00 0.00 57 1010.3
20260503010642 75 313 2.6 4.3 0.00 0.00 0.00 57 1010.2
20260503010139 75 14 3.5 7.0 0.00 0.00 0.00 58 1009.9
20260503005636 76 315 2.6 10.4 0.00 0.00 0.00 58 1010.1
20260503005134 76 351 2.6 4.3 0.00 0.00 0.00 58 1010.2
20260503004630 76 13 4.3 7.0 0.00 0.00 0.00 58 1010.1
20260503004129 76 33 3.5 7.8 0.00 0.00 0.00 57 1010.1
20260503003625 75 357 4.3 12.2 0.00 0.00 0.00 58 1010.4
20260503003122 75 20 5.2 10.4 0.00 0.00 0.00 57 1010.2
20260503002619 76 31 1.7 5.2 0.00 0.00 0.00 59 1010.2
20260503002115 76 22 1.7 7.0 0.00 0.00 0.00 59 1010.0
20260503001611 76 53 2.6 7.8 0.00 0.00 0.00 58 1010.3
20260503001109 76 0 3.5 10.4 0.00 0.00 0.00 59 1010.3
20260503000606 76 358 9.6 12.2 0.00 0.00 0.00 58 1010.2
20260503000104 76 332 4.3 10.4 0.00 0.00 0.00 58 1010.3
20260502235600 76 352 6.1 9.6 0.00 0.00 0.00 59 1010.3
20260502235058 76 26 2.6 5.2 0.00 0.00 0.00 59 1010.3
20260502234553 75 29 5.2 10.4 0.00 0.00 0.00 59 1010.6
20260502234052 75 20 4.3 10.4 0.00 0.00 0.00 60 1010.6
20260502233551 75 36 2.6 9.6 0.00 0.00 0.00 60 1010.8
20260502233049 76 17 9.6 10.4 0.00 0.00 0.00 59 1010.8
20260502232545 75 299 1.7 7.0 0.00 0.00 0.00 59 1010.6
20260502232042 75 312 7.0 10.4 0.00 0.00 0.00 59 1010.9
20260502231539 75 17 1.7 7.0 0.00 0.00 0.00 59 1010.8
20260502231037 75 340 4.3 12.2 0.00 0.00 0.00 60 1011.1
20260502230535 75 3 7.8 10.4 0.00 0.00 0.00 60 1011.0
20260502230033 75 304 4.3 9.6 0.00 0.00 0.00 61 1011.3
20260502225528 74 18 2.6 10.4 0.00 0.00 0.00 60 1011.1
20260502225026 74 354 5.2 7.0 0.00 0.00 0.00 60 1011.5
20260502224522 75 349 3.5 5.2 0.00 0.00 0.00 61 1011.5